Joplin, MO

3:04 PM CST on November 23, 2017 (GMT -0600)
Joplin Regional

Weather History for KJLN - September, 2012

Change the Weather History Date:

Sunday, September 30, 2012

  Actual Average Record
Temperature  
Mean Temperature 64 °F 65 °F  
Max Temperature 73 °F 76 °F 93 °F (1952)
Min Temperature 54 °F 53 °F 30 °F (1984)
Degree Days  
Heating Degree Days 1 4  
Month to date heating degree days 24 38  
Since 1 July heating degree days 24 42  
Cooling Degree Days 0 3  
Month to date cooling degree days 190 215  
Year to date cooling degree days 2061 1642  
Growing Degree Days 14 (Base 50)    
Moisture  
Dew Point 53 °F    
Average Humidity 71    
Maximum Humidity 93    
Minimum Humidity 49    
Precipitation  
Precipitation 0.00 in 0.15 in 7.12 in (1986)
Month to date precipitation 7.20 4.95  
Year to date precipitation 31.02 35.92  
Snow  
Snow 0.00 in - - ()
Month to date snowfall 0.0  
Snow Depth 0.00 in    
Sea Level Pressure  
Sea Level Pressure 29.93 in    
Wind  
Wind Speed 3 mph (NNE)    
Max Wind Speed 9 mph    
Max Gust Speed 13 mph    
Visibility 10 miles    
Events      
T = Trace of Precipitation, MM = Missing Value Source: NWS Daily Summary

Daily Weather History Graph

Daily Weather History Graph

Search for Another Location

Airport or City:

Trip Planner

Search our weather history database for the weather conditions in past years. The results will help you decide how hot, cold, wet, or windy it might be!

Date:

Astronomy

Sep. 30, 2012 Rise Set
Actual Time 7:12 AM CDT 7:01 PM CDT
Civil Twilight 6:47 AM CDT 7:27 PM CDT
Nautical Twilight 6:16 AM CDT 7:58 PM CDT
Astronomical Twilight 5:46 AM CDT 8:28 PM CDT
Moon 7:08 PM CDT (9/30) 7:42 AM CDT (9/30)
Length of Visible Light 12h 40m
Length of Day
11h 49m
Full, 100% of the Moon is Illuminated
Sep 30
Full
Oct 8
Last Quarter
Oct 15
New
Oct 21
First Quarter
Oct 29
Full

Hourly Weather History & Observations

Time (CDT) Temp. Dew Point Humidity Pressure Visibility Wind Dir Wind Speed Gust Speed Precip Events Conditions
12:53 AM 59.0 °F 52.0 °F 78% 29.99 in 10.0 mi ENE 4.6 mph - N/A   Clear
1:53 AM 57.9 °F 52.0 °F 81% 29.99 in 10.0 mi ENE 4.6 mph - N/A   Clear
2:53 AM 57.0 °F 52.0 °F 83% 29.98 in 10.0 mi NE 3.5 mph - N/A   Clear
3:53 AM 55.9 °F 52.0 °F 87% 29.97 in 10.0 mi Calm Calm - N/A   Clear
4:53 AM 55.9 °F 52.0 °F 87% 29.96 in 10.0 mi Calm Calm - N/A   Clear
5:53 AM 55.0 °F 53.1 °F 93% 29.96 in 10.0 mi Calm Calm - N/A   Clear
6:53 AM 55.0 °F 52.0 °F 89% 29.97 in 10.0 mi NE 3.5 mph - N/A   Clear
7:53 AM 55.9 °F 52.0 °F 87% 29.97 in 10.0 mi ENE 3.5 mph - N/A   Clear
8:53 AM 57.9 °F 53.1 °F 84% 29.98 in 10.0 mi NE 3.5 mph - N/A   Clear
9:53 AM 61.0 °F 54.0 °F 78% 29.98 in 10.0 mi Calm Calm - N/A   Clear
10:53 AM 66.0 °F 55.0 °F 68% 29.97 in 10.0 mi NE 4.6 mph - N/A   Clear
11:53 AM 69.1 °F 53.1 °F 57% 29.96 in 10.0 mi NE 5.8 mph - N/A   Clear
12:53 PM 70.0 °F 52.0 °F 53% 29.95 in 10.0 mi NE 5.8 mph - N/A   Clear
1:53 PM 70.0 °F 52.0 °F 53% 29.92 in 10.0 mi North 4.6 mph - N/A   Clear
2:53 PM 70.0 °F 50.0 °F 49% 29.90 in 10.0 mi NNE 6.9 mph - N/A   Clear
3:53 PM 72.0 °F 51.1 °F 48% 29.88 in 10.0 mi North 5.8 mph - N/A   Clear
4:53 PM 71.1 °F 53.1 °F 53% 29.88 in 10.0 mi North 5.8 mph - N/A   Clear
5:53 PM 69.1 °F 55.0 °F 61% 29.88 in 10.0 mi North 5.8 mph - N/A   Clear
6:53 PM 68.0 °F 55.0 °F 63% 29.88 in 10.0 mi Calm Calm - N/A   Clear
7:53 PM 63.0 °F 55.9 °F 78% 29.87 in 10.0 mi North 5.8 mph - N/A   Clear
8:53 PM 64.9 °F 54.0 °F 68% 29.86 in 10.0 mi Calm Calm - N/A   Clear
9:53 PM 63.0 °F 55.0 °F 75% 29.87 in 10.0 mi Calm Calm - N/A   Clear
10:53 PM 62.1 °F 55.0 °F 78% 29.87 in 10.0 mi NNW 3.5 mph - N/A   Clear
11:53 PM 62.1 °F 55.0 °F 78% 29.86 in 10.0 mi North 4.6 mph - N/A   Clear